Location: Unspecified
(39.4830°S, 0.0000°E)
Time: 19:08:00
(UTC+00:00)

ISS - Visible Passes

Search period start: 15 October 2019 00:00
Search period end: 25 October 2019 00:00
Orbit: 411 x 421 km, 51.6° (Epoch: 15 October)

Date Brightness Start Highest point End Pass type
(mag) Time Alt. Az. Time Alt. Az. Time Alt. Az.
15 Oct -0.3 02:10:13 13° SE 02:10:13 13° SE 02:10:58 10° SE visible
15 Oct -3.0 03:43:08 12° SW 03:46:16 54° SE 03:49:38 10° ENE visible
16 Oct -2.1 02:57:17 33° SSE 02:57:37 34° SSE 03:00:47 10° E visible
16 Oct -2.8 04:31:18 10° WSW 04:34:18 29° NW 04:37:18 10° NNE visible
17 Oct -3.6 03:44:52 37° W 03:45:50 52° NW 03:49:10 10° NE visible
17 Oct -1.5 20:23:59 10° NW 20:24:55 18° NW 20:24:55 18° NW visible
18 Oct -1.3 02:59:59 16° NE 02:59:59 16° NE 03:00:44 10° NE visible
18 Oct -3.5 19:35:35 10° NNW 19:38:50 46° NE 19:40:22 26° ESE visible
18 Oct -0.6 21:12:51 10° W 21:13:24 13° WSW 21:13:24 13° WSW visible
19 Oct -2.6 18:47:33 10° N 18:50:23 25° NE 18:53:15 10° ESE visible
19 Oct -2.2 20:23:51 10° W 20:27:01 36° SSW 20:28:20 25° SSE visible
20 Oct -3.2 19:35:03 10° WNW 19:38:23 59° SW 19:41:46 10° SE visible
20 Oct -0.7 21:13:36 10° SW 21:15:42 15° SSW 21:15:44 15° SSW visible
21 Oct -3.8 18:46:26 10° NW 18:49:48 79° NE 18:53:13 10° SE visible
21 Oct -1.0 20:24:21 10° WSW 20:26:54 19° SSW 20:29:27 10° SSE visible
22 Oct -1.5 19:35:14 10° W 19:38:08 26° SSW 19:41:05 10° SSE visible
22 Oct -0.5 21:14:35 10° SSW 21:15:49 11° S 21:16:27 11° S visible
23 Oct -0.7 20:25:16 10° SW 20:26:56 13° SSW 20:28:37 10° SSE visible
24 Oct -0.8 19:35:56 10° WSW 19:38:06 16° SSW 19:40:16 10° SSE visible
24 Oct -0.6 21:14:58 10° SSW 21:15:59 11° S 21:16:20 11° S visible
